Time,TemperatureF,DewpointF,PressureIn,WindDirection,WindDirectionDegrees,WindSpeedMPH,WindSpeedGustMPH,Humidity,HourlyPrecipIn,Conditions,Clouds,dailyrainin,SolarRadiationWatts/m^2,SoftwareType,DateUTC
2013-04-26 00:01:00,59.0,41.0,-100.00,SSW,201,3.0,8.0,50,-99.99,,,-99.99,0.000000,,2013-04-26 07:01:00,
2013-04-26 00:11:00,59.0,41.0,-100.00,SSW,201,3.0,8.0,50,-99.99,,,-99.99,0.000000,,2013-04-26 07:11:00,
2013-04-26 00:42:00,57.0,40.0,-100.00,South,173,5.0,8.0,52,-99.99,,,0.00,0.000000,,2013-04-26 07:42:00,
2013-04-26 00:52:00,57.0,40.0,-100.00,South,173,5.0,8.0,52,-99.99,,,0.00,0.000000,,2013-04-26 07:52:00,
2013-04-26 01:02:00,57.0,40.0,-100.00,South,173,5.0,8.0,52,-99.99,,,0.00,0.000000,,2013-04-26 08:02:00,
2013-04-26 01:11:00,57.0,40.0,-100.00,South,173,5.0,8.0,52,-99.99,,,0.00,0.000000,,2013-04-26 08:11:00,
2013-04-26 01:42:00,56.0,40.0,-100.00,SSE,166,5.0,9.0,55,-99.99,,,0.00,0.000000,,2013-04-26 08:42:00,
2013-04-26 01:52:00,56.0,40.0,-100.00,SSE,166,5.0,9.0,55,-99.99,,,0.00,0.000000,,2013-04-26 08:52:00,
2013-04-26 02:01:00,56.0,40.0,-100.00,SSE,166,5.0,9.0,55,-99.99,,,0.00,0.000000,,2013-04-26 09:01:00,
2013-04-26 02:11:00,56.0,40.0,-100.00,SSE,166,5.0,9.0,55,-99.99,,,0.00,0.000000,,2013-04-26 09:11:00,
2013-04-26 02:42:00,54.0,41.0,-100.00,SSW,195,3.0,7.0,61,-99.99,,,0.00,0.000000,,2013-04-26 09:42:00,
2013-04-26 02:53:00,54.0,41.0,-100.00,SSW,195,3.0,7.0,61,-99.99,,,0.00,0.000000,,2013-04-26 09:53:00,
2013-04-26 03:03:00,54.0,41.0,-100.00,SSW,195,3.0,7.0,61,-99.99,,,0.00,0.000000,,2013-04-26 10:03:00,
2013-04-26 03:12:00,54.0,41.0,-100.00,SSW,195,3.0,7.0,61,-99.99,,,0.00,0.000000,,2013-04-26 10:12:00,
2013-04-26 03:42:00,51.0,40.0,-100.00,SSW,194,2.0,5.0,65,-99.99,,,0.00,0.000000,,2013-04-26 10:42:00,
2013-04-26 03:52:00,51.0,40.0,-100.00,SSW,194,2.0,5.0,65,-99.99,,,0.00,0.000000,,2013-04-26 10:52:00,
2013-04-26 04:02:00,51.0,40.0,-100.00,SSW,194,2.0,5.0,65,-99.99,,,0.00,0.000000,,2013-04-26 11:02:00,
2013-04-26 04:11:00,51.0,40.0,-100.00,SSW,194,2.0,5.0,65,-99.99,,,0.00,0.000000,,2013-04-26 11:11:00,
2013-04-26 04:41:00,51.0,40.0,-100.00,WSW,243,2.0,4.0,66,-99.99,,,0.00,0.000000,,2013-04-26 11:41:00,
2013-04-26 04:52:00,51.0,40.0,-100.00,WSW,243,2.0,4.0,66,-99.99,,,0.00,0.000000,,2013-04-26 11:52:00,
2013-04-26 05:01:00,51.0,40.0,-100.00,WSW,243,2.0,4.0,66,-99.99,,,0.00,0.000000,,2013-04-26 12:01:00,
2013-04-26 05:11:00,51.0,40.0,-100.00,WSW,243,2.0,4.0,66,-99.99,,,0.00,0.000000,,2013-04-26 12:11:00,
2013-04-26 05:41:00,49.0,40.0,-100.00,SW,236,2.0,4.0,70,-99.99,,,0.00,0.000000,,2013-04-26 12:41:00,
2013-04-26 05:52:00,49.0,40.0,-100.00,SW,236,2.0,4.0,70,-99.99,,,0.00,0.000000,,2013-04-26 12:52:00,
2013-04-26 06:01:00,49.0,40.0,-100.00,SW,236,2.0,4.0,70,-99.99,,,0.00,0.000000,,2013-04-26 13:01:00,
2013-04-26 06:11:00,49.0,40.0,-100.00,SW,236,2.0,4.0,70,-99.99,,,0.00,0.000000,,2013-04-26 13:11:00,
2013-04-26 06:41:00,47.0,38.0,-100.00,SW,220,2.0,4.0,70,-99.99,,,0.00,5.110000,,2013-04-26 13:41:00,
2013-04-26 06:52:00,47.0,38.0,-100.00,SW,220,2.0,4.0,70,-99.99,,,0.00,5.110000,,2013-04-26 13:52:00,
2013-04-26 07:01:00,47.0,38.0,-100.00,SW,220,2.0,4.0,70,-99.99,,,0.00,5.110000,,2013-04-26 14:01:00,
2013-04-26 07:11:00,47.0,38.0,-100.00,SW,220,2.0,4.0,70,-99.99,,,0.00,5.110000,,2013-04-26 14:11:00,
2013-04-26 07:41:00,51.0,39.0,-100.00,SSW,205,3.0,9.0,62,-99.99,,,-99.99,89.260002,,2013-04-26 14:41:00,
2013-04-26 07:52:00,51.0,39.0,-100.00,SSW,205,3.0,9.0,62,-99.99,,,-99.99,89.260002,,2013-04-26 14:52:00,
2013-04-26 08:01:00,51.0,39.0,-100.00,SSW,205,3.0,9.0,62,-99.99,,,-99.99,89.260002,,2013-04-26 15:01:00,
2013-04-26 08:11:00,51.0,39.0,-100.00,SSW,205,3.0,9.0,62,-99.99,,,-99.99,89.260002,,2013-04-26 15:11:00,
2013-04-26 08:42:00,58.0,40.0,-100.00,South,185,2.0,5.0,50,-99.99,,,0.00,311.239990,,2013-04-26 15:42:00,
2013-04-26 08:53:00,58.0,40.0,-100.00,South,185,2.0,5.0,50,-99.99,,,0.00,311.239990,,2013-04-26 15:53:00,
2013-04-26 09:12:00,58.0,40.0,-100.00,South,185,2.0,5.0,50,-99.99,,,0.00,311.239990,,2013-04-26 16:12:00,
2013-04-26 09:42:00,63.0,43.0,-100.00,NNE,22,2.0,5.0,47,-99.99,,,0.00,485.799988,,2013-04-26 16:42:00,
2013-04-26 09:52:00,63.0,43.0,-100.00,NNE,22,2.0,5.0,47,-99.99,,,0.00,485.799988,,2013-04-26 16:52:00,
2013-04-26 10:41:00,68.0,44.0,-100.00,NNE,15,3.0,7.0,42,-99.99,,,0.00,640.840027,,2013-04-26 17:41:00,
2013-04-26 10:52:00,68.0,44.0,-100.00,NNE,15,3.0,7.0,42,-99.99,,,0.00,640.840027,,2013-04-26 17:52:00,
2013-04-26 11:11:00,68.0,44.0,-100.00,NNE,15,3.0,7.0,42,-99.99,,,0.00,640.840027,,2013-04-26 18:11:00,
2013-04-26 11:42:00,72.0,42.0,-100.00,North,1,3.0,7.0,33,-99.99,,,0.00,763.679993,,2013-04-26 18:42:00,
2013-04-26 11:52:00,72.0,42.0,-100.00,North,1,3.0,7.0,33,-99.99,,,0.00,763.679993,,2013-04-26 18:52:00,
2013-04-26 12:01:00,72.0,42.0,-100.00,North,1,3.0,7.0,33,-99.99,,,0.00,763.679993,,2013-04-26 19:01:00,
2013-04-26 12:11:00,72.0,42.0,-100.00,North,1,3.0,7.0,33,-99.99,,,0.00,763.679993,,2013-04-26 19:11:00,
2013-04-26 12:41:00,76.0,35.0,-100.00,SSW,194,6.0,16.0,22,-99.99,,,0.00,844.919983,,2013-04-26 19:41:00,
2013-04-26 12:52:00,76.0,35.0,-100.00,SSW,194,6.0,16.0,22,-99.99,,,0.00,844.919983,,2013-04-26 19:52:00,
2013-04-26 13:02:00,76.0,35.0,-100.00,SSW,194,6.0,16.0,22,-99.99,,,0.00,844.919983,,2013-04-26 20:02:00,
2013-04-26 13:11:00,76.0,35.0,-100.00,SSW,194,6.0,16.0,22,-99.99,,,0.00,844.919983,,2013-04-26 20:11:00,
2013-04-26 13:42:00,79.0,34.0,-100.00,SW,227,4.0,12.0,19,-99.99,,,0.00,865.840027,,2013-04-26 20:42:00,
2013-04-26 13:52:00,79.0,34.0,-100.00,SW,227,4.0,12.0,19,-99.99,,,0.00,865.840027,,2013-04-26 20:52:00,
2013-04-26 14:01:00,79.0,34.0,-100.00,SW,227,4.0,12.0,19,-99.99,,,0.00,865.840027,,2013-04-26 21:01:00,
2013-04-26 14:11:00,79.0,34.0,-100.00,SW,227,4.0,12.0,19,-99.99,,,0.00,865.840027,,2013-04-26 21:11:00,
2013-04-26 14:42:00,78.0,33.0,-100.00,SW,226,4.0,15.0,19,-99.99,,,0.00,555.530029,,2013-04-26 21:42:00,
2013-04-26 14:53:00,78.0,33.0,-100.00,SW,226,4.0,15.0,19,-99.99,,,0.00,555.530029,,2013-04-26 21:53:00,
2013-04-26 15:02:00,78.0,33.0,-100.00,SW,226,4.0,15.0,19,-99.99,,,0.00,555.530029,,2013-04-26 22:02:00,
2013-04-26 15:12:00,78.0,33.0,-100.00,SW,226,4.0,15.0,19,-99.99,,,0.00,555.530029,,2013-04-26 22:12:00,
2013-04-26 15:42:00,79.0,33.0,-100.00,West,271,4.0,11.0,18,-99.99,,,0.00,767.280029,,2013-04-26 22:42:00,
2013-04-26 15:52:00,79.0,33.0,-100.00,West,271,4.0,11.0,18,-99.99,,,0.00,767.280029,,2013-04-26 22:52:00,
2013-04-26 16:01:00,79.0,33.0,-100.00,West,271,4.0,11.0,18,-99.99,,,0.00,767.280029,,2013-04-26 23:01:00,
2013-04-26 16:11:00,79.0,33.0,-100.00,West,271,4.0,11.0,18,-99.99,,,0.00,767.280029,,2013-04-26 23:11:00,
2013-04-26 16:42:00,79.0,29.0,-100.00,NW,312,2.0,7.0,16,-99.99,,,0.00,638.979980,,2013-04-26 23:42:00,
2013-04-26 16:52:00,79.0,29.0,-100.00,NW,312,2.0,7.0,16,-99.99,,,0.00,638.979980,,2013-04-26 23:52:00,
2013-04-26 17:01:00,79.0,29.0,-100.00,NW,312,2.0,7.0,16,-99.99,,,0.00,638.979980,,2013-04-27 00:01:00,
2013-04-26 17:11:00,79.0,29.0,-100.00,NW,312,2.0,7.0,16,-99.99,,,0.00,638.979980,,2013-04-27 00:11:00,
2013-04-26 17:41:00,79.0,28.0,-100.00,West,270,2.0,7.0,15,-99.99,,,0.00,462.209991,,2013-04-27 00:41:00,
2013-04-26 17:52:00,79.0,28.0,-100.00,West,270,2.0,7.0,15,-99.99,,,0.00,462.209991,,2013-04-27 00:52:00,
2013-04-26 18:01:00,79.0,28.0,-100.00,West,270,2.0,7.0,15,-99.99,,,0.00,462.209991,,2013-04-27 01:01:00,
2013-04-26 18:11:00,79.0,28.0,-100.00,West,270,2.0,7.0,15,-99.99,,,0.00,462.209991,,2013-04-27 01:11:00,
2013-04-26 18:42:00,76.0,29.0,-100.00,SW,230,3.0,8.0,17,-99.99,,,0.00,312.980011,,2013-04-27 01:42:00,
2013-04-26 18:52:00,76.0,29.0,-100.00,SW,230,3.0,8.0,17,-99.99,,,0.00,312.980011,,2013-04-27 01:52:00,
2013-04-26 19:01:00,76.0,29.0,-100.00,SW,230,3.0,8.0,17,-99.99,,,0.00,312.980011,,2013-04-27 02:01:00,
2013-04-26 19:11:00,76.0,29.0,-100.00,SW,230,3.0,8.0,17,-99.99,,,0.00,312.980011,,2013-04-27 02:11:00,
2013-04-26 19:42:00,71.0,31.0,-100.00,WSW,245,1.0,5.0,23,-99.99,,,0.00,85.540001,,2013-04-27 02:42:00,
2013-04-26 19:52:00,71.0,31.0,-100.00,WSW,245,1.0,5.0,23,-99.99,,,0.00,85.540001,,2013-04-27 02:52:00,
2013-04-26 20:02:00,71.0,31.0,-100.00,WSW,245,1.0,5.0,23,-99.99,,,0.00,85.540001,,2013-04-27 03:02:00,
2013-04-26 20:11:00,71.0,31.0,-100.00,WSW,245,1.0,5.0,23,-99.99,,,0.00,85.540001,,2013-04-27 03:11:00,
2013-04-26 20:42:00,65.0,33.0,-100.00,SW,215,2.0,5.0,30,-99.99,,,0.00,3.370000,,2013-04-27 03:42:00,
2013-04-26 20:53:00,65.0,33.0,-100.00,SW,215,2.0,5.0,30,-99.99,,,0.00,3.370000,,2013-04-27 03:53:00,
2013-04-26 21:02:00,65.0,33.0,-100.00,SW,215,2.0,5.0,30,-99.99,,,0.00,3.370000,,2013-04-27 04:02:00,
2013-04-26 21:12:00,65.0,33.0,-100.00,SW,215,2.0,5.0,30,-99.99,,,0.00,3.370000,,2013-04-27 04:12:00,
2013-04-26 21:43:00,60.0,33.0,-100.00,SSW,206,3.0,8.0,36,-99.99,,,0.00,0.000000,,2013-04-27 04:43:00,
2013-04-26 21:53:00,60.0,33.0,-100.00,SSW,206,3.0,8.0,36,-99.99,,,0.00,0.000000,,2013-04-27 04:53:00,
2013-04-26 22:02:00,60.0,33.0,-100.00,SSW,206,3.0,8.0,36,-99.99,,,0.00,0.000000,,2013-04-27 05:02:00,
2013-04-26 22:12:00,60.0,33.0,-100.00,SSW,206,3.0,8.0,36,-99.99,,,0.00,0.000000,,2013-04-27 05:12:00,
2013-04-26 22:42:00,59.0,32.0,-100.00,SSW,199,5.0,12.0,36,-99.99,,,0.00,0.000000,,2013-04-27 05:42:00,
2013-04-26 22:52:00,59.0,32.0,-100.00,SSW,199,5.0,12.0,36,-99.99,,,0.00,0.000000,,2013-04-27 05:52:00,
2013-04-26 23:01:00,59.0,32.0,-100.00,SSW,199,5.0,12.0,36,-99.99,,,0.00,0.000000,,2013-04-27 06:01:00,
2013-04-26 23:12:00,59.0,32.0,-100.00,SSW,199,5.0,12.0,36,-99.99,,,0.00,0.000000,,2013-04-27 06:12:00,